www.pogodaiklimat.ru

Погода и климат >> Архив погоды >> Россия >> Краснодарский край >> Белая Глина


ПОГОДА в Белой Глине

  • Прогноз погоды в Белой Глине
  • Монитор погоды в Белой Глине

АРХИВ ПОГОДЫ в Белой Глине

Время (UTC), дата Ветер
(напр.,м/с)
 
Видим.   Явления Облачность Т
(С)
Тd
(С)
f
(%)
Тe
(С)
Тes
(С)
Комфортность P
(гПа)
Po
(гПа)
Тmin
(С)
Tmax
(С)
R
(мм)
R24
(мм)
S
(см)
12 12.06 В 2
{11}
10 км 10/3 600 м
[Cb cap Ac cast Cs]
+32.2 +10.4 26 +32 +36 жарко 1008.9 1001.2
15 12.06 ЮВ 5 10 км 10/4 600 м
[Cb cap Ac lent]
+27.3 +12.1 39 +29 +29 жарко 1008.8 1000.9 +33.7
18 12.06 штиль 0 10 км {ливн. осадки} 10/3 600 м
[Cb cap Ac lent]
+23.0 +15.5 63 +27 +27 душно 1009.7 1001.7
21 12.06 штиль 0 10 км {ливн. осадки} 4/0
[]
+20.7 +13.6 64 +23 +23 комфорт 1009.1 1001.1
00 13.06 штиль 0 10 км {ливн. осадки} ясно +18.3 +11.0 62 +19 +19 1009.4 1001.3
03 13.06 СВ 1 10 км 4/0
[Ci fib]
+18.6 +10.2 58 +20 +22 1010.3 1002.2 +17.3 0.5
06 13.06 СВ 2 10 км 6/0
[Cs]
+27.3 +8.6 31 +27 +37 жарко 1011.1 1003.2
09 13.06 В 5-10
{12}
10 км 10/6 600 м
[Cb cap Ac lent]
+29.5 +5.3 22 +28 +29 жарко 1011.1 1003.3
12 13.06 СВ 5-11
{13}
10 км 10/8 600 м
[Cb cap Ac lent]
+29.6 +5.9 22 +28 +28 жарко 1010.6 1002.8
15 13.06 Ю 3
{11}
10 км 10/4 600 м
[Cb cap Ac lent Cs]
+27.7 +11.2 36 +29 +29 жарко 1011.4 1003.5 +31.5
18 13.06 штиль 0 10 км 8/0
[Ac lent Cs]
+23.0 +13.1 54 +26 +26 жарко 1012.6 1004.6
21 13.06 штиль 0 10 км 6/0
[Ci sp]
+21.6 +12.8 57 +24 +24 комфорт 1012.8 1004.8
00 14.06 СВ 1 10 км 10/0
[Ac lent Cs]
+20.3 +12.7 62 +23 +23 комфорт 1014.1 1006.0
03 14.06 СВ 3 10 км 8/0
[Cs]
+20.5 +11.0 54 +23 +23 комфорт 1015.4 1007.4 +18.6
06 14.06 В 4-10
{12}
10 км 10/0
[Cs]
+23.3 +6.3 33 +24 +30 комфорт 1016.6 1008.5
09 14.06 СВ 5-10
{11}
10 км ясно +28.0 +7.3 27 +27 +37 жарко 1016.4 1008.5
12 14.06 СВ 4-10
{11}
10 км ясно +30.7 +6.8 22 +29 +38 жарко 1015.0 1007.2
15 14.06 СВ 4
{10}
10 км ясно +30.0 +6.1 22 +29 +30 жарко 1014.4 1006.6 +31.2
18 14.06 СВ 2 10 км ясно +23.9 +6.3 32 +24 +24 комфорт 1015.0 1007.0
21 14.06 СВ 1 10 км ясно +18.9 +4.9 40 +20 +20 1014.5 1006.4
00 15.06 СВ 1 10 км ясно +17.4 +4.0 41 +18 +18 1014.4 1006.2
03 15.06 СВ 1 10 км ясно +18.0 +5.6 44 +19 +21 1014.7 1006.5 +16.8
06 15.06 В 2 10 км 3/0
[Ci fib]
+26.2 +14.3 48 +29 +39 жарко 1014.0 1006.1
09 15.06 В 3 10 км 6/0
[Cs]
+30.8 +7.1 23 +30 +43 жарко 1013.0 1005.2
12 15.06 СВ 3 10 км 4/0
[Ci sp]
+32.2 +4.4 17 +30 +40 жарко 1011.4 1003.7
15 15.06 СВ 2 10 км ясно +31.8 +2.9 16 +29 +32 жарко 1010.3 1002.5 +32.8
18 15.06 С 1 10 км ясно +23.7 +6.2 32 +24 +24 комфорт 1011.1 1003.2
21 15.06 штиль 0 10 км ясно +19.6 +4.8 38 +20 +20 1011.2 1003.1
00 16.06 штиль 0 10 км ясно +15.5 +5.9 53 +15 +15 1010.2 1002.0
03 16.06 В 1 10 км ясно +19.9 +6.3 41 +22 +23 комфорт 1009.9 1001.9 +14.0
06 16.06 В 1 10 км ясно +27.4 +9.0 31 +27 +40 жарко 1010.0 1002.2
09 16.06 В 2 10 км 3/3 1500 м
[Cu hum]
+32.9 +7.3 20 +31 +44 жарко 1009.2 1001.5
12 16.06 СВ 1 10 км 1/1 2000 м
[Cu hum]
+35.0 +2.8 13 +32 +46 жарко 1007.9 1000.2
15 16.06 СВ 1 10 км ясно +34.5 +2.8 14 +32 +34 жарко 1007.2 999.5 +35.3
18 16.06 З 1 10 км 4/0
[Cs]
+25.3 +8.3 34 +26 +26 жарко 1007.2 999.3
21 16.06 З 1 10 км ясно +20.2 +9.7 51 +23 +23 комфорт 1007.3 999.3
00 17.06 СВ 2 10 км ясно +20.4 +14.9 71 +24 +24 комфорт 1009.1 1001.1
03 17.06 СВ 2 10 км ясно +19.3 +13.3 68 +21 +23 комфорт 1010.3 1002.2 +18.0
06 17.06 СВ 3 10 км ясно +24.2 +12.8 49 +26 +35 жарко 1011.0 1003.1
09 17.06 СВ 3 10 км ясно +28.6 +12.2 36 +30 +45 жарко 1010.9 1003.1
12 17.06 СВ 3 10 км 3/0
[Cs]
+31.3 +11.3 29 +31 +42 жарко 1009.8 1002.0
15 17.06 С 3 10 км 3/3 1500 м
[Cu hum]
+30.4 +10.8 30 +31 +32 жарко 1010.1 1002.3 +31.6
18 17.06 С 2 10 км ясно +25.2 +10.1 39 +26 +26 жарко 1011.3 1003.4
21 17.06 СВ 1 10 км ясно +22.1 +8.7 42 +23 +23 комфорт 1012.0 1004.0
00 18.06 СВ 1 10 км ясно +19.1 +8.4 50 +21 +21 комфорт 1012.2 1004.1
03 18.06 СВ 2 10 км ясно +20.0 +9.2 50 +22 +23 комфорт 1012.8 1004.7 +18.2
06 18.06 СВ 3 10 км ясно +27.2 +8.3 30 +27 +36 жарко 1012.5 1004.6
09 18.06 СВ 2 10 км ясно +30.2 +6.7 23 +29 +48 жарко 1012.1 1004.3
12 18.06 В 2 10 км ясно +32.3 +3.3 16 +30 +43 жарко 1010.7 1002.9
15 18.06 С 2 10 км ясно +32.1 +3.7 17 +30 +32 жарко 1009.8 1002.1 +32.9
18 18.06 С 2 10 км ясно +25.9 +7.2 30 +26 +26 жарко 1010.8 1002.9
21 18.06 С 1 10 км ясно +21.9 +9.7 46 +23 +23 комфорт 1011.4 1003.4
00 19.06 С 1 10 км ясно +20.5 +10.0 51 +23 +23 комфорт 1011.2 1003.1
03 19.06 СВ 1 10 км ясно +21.0 +10.1 50 +24 +25 комфорт 1011.3 1003.3 +18.0
06 19.06 СВ 3 10 км ясно +28.2 +9.5 31 +28 +37 жарко 1011.1 1003.3
09 19.06 СВ 2 10 км ясно +32.6 +7.4 21 +31 +50 жарко 1010.7 1002.9

 

Местоположение метеостанции Белая Глина (Краснодарский край, Россия): широта 46.08 долгота 40.88 высота над уровнем моря 69 м.

В архиве по умолчанию представлена погода в Белой Глине за последнюю неделю. Архивные данные за месяц целиком и за предыдущие месяцы, начиная с января 2011 года, Вы можете получить, выбрав интересующий диапазон дат из раскрывающегося списка и нажав кнопку "Ввод!".


*Определитесь, кто Вы:
робот инопланетянин человек

Внимание! Время в таблицах - всемирное. Для получения местного времени необходимо прибавить поправку, которая равна 3 ч.

Смотрите также архив погоды в соседних городах и на ближайших метеорологических станциях:

Погода в Красногвардейском (Ставропольский край, Россия) (54 км)
Погода в Гиганте (Ростовская область, Россия) (61 км)
Погода в Тихорецке (Краснодарский край, Россия) (67 км)
Погода в Новоалександровске (Ставропольский край, Россия) (69 км)
Погода в Кропоткине (Краснодарский край, Россия) (76 км)
Погода в Сосыке (Краснодарский край, Россия) (81 км)
Погода в Городовиковске (Калмыкия, Россия) (84 км)
Погода в Зерноград (Ростовская область, Россия) (96 км)
Погода в Изобильном (Ставропольский край, Россия) (101 км)
Погода в Кущевской (Краснодарский край, Россия) (109 км)

Пояснения к столбцам:

Ветер - указаны скорость ветра в м/с - средняя за 10 мин, порывы в срок и между сроками (в фигурных скобках) и направление, откуда дует ветер: С - северный, СВ - северо-восточный, В - восточный, ЮВ - юго-восточный, Ю - южный, ЮЗ - юго-западный, З - западный, СЗ - северо-западный.
Видимость - горизонтальная дальность видимости в метрах или километрах. При видимости от 1 до 10 км при отсутствии осадков обычно наблюдается дымка, при ухудшении видимости до 1 км и менее - туман. В сухую погоду видимость может ухудшаться дымом, пылью или мглою.
Явления - указаны атмосферные явления, наблюдавшиеся в срок или в последний час перед сроком; фигурными скобками обозначены явления, наблюдавшиеся между сроками (за 1-3 часа до срока); квадратными скобками обозначены град или гололедные отложения с указанием их диаметра в мм.
Облачность - указаны через наклонную черту общая и нижняя облачность в баллах и высота нижней границы облаков в метрах; квадратными скобками обозначены формы облаков: Ci - перистые, Cs - перисто-слоистые, Cc - перисто-кучевые, Ac - высококучевые, As - высокослоистые, Sc - слоисто-кучевые, Ns - слоисто-дождевые, Cu - кучевые, Cb - кучево-дождевые. Подробнее классификацию облаков см. в Атласе облаков (PDF).
T - Температура воздуха - температура, измеренная на высоте 2 м над землей.
Td - Температура точки росы - температура, при понижении до которой содержащийся в воздухе водяной пар достигнет насыщения.
f - Относительная влажность воздуха - влажноcть воздуха, измеренная на высоте 2 м над землей.
Te - Эффективная температура - температура, которую ощущает одетый по сезону человек в тени. Характеристика душности погоды. При расчете учитывается влияние влажности воздуха и скорости ветра на теплоощущения человека.
Tes - Эффективная температура на солнце - температура, которую ощущает человек, с поправкой на солнечный нагрев. Характеристика знойности погоды. Зависит от высоты солнца над горизонтом, облачности и скорости ветра. Ночью, в пасмурную погоду, а также при ветре 12 м/с и более поправка равна нулю.
P - Атмосферное давление - приведенное к уровню моря атмосферное давление.
Po - Атмосферное давление - измеренное на уровне метеостанции атмосферное давление.
Tmin - Минимальная температура - минимум температуры воздуха на высоте 2 м над землей.
Tmax - Максимальная температура - максимум температуры воздуха на высоте 2 м над землей.
R - Количество осадков - Количество выпавших осадков за период времени, мм. При наведении курсора мыши на число - период времени, за который выпало указанное количество осадков.
R24 - Количество осадков - Количество выпавших осадков за 24 часа, мм.
S - Снежный покров - Высота снежного покрова, см. При наведении курсора мыши на число - состояние снежного покрова и степень покрытия местности в баллах.